Аэропорт
Астана (UACC)

 UACC / TSE
ЗЦ Центральная Азия
Астана (UACC)
Астана (UACC)
 51.02220, 71.46690  / 1165 ft

 UACC 251200Z 29003MPS 220V330 CAVOK 28/08 Q1016 R22/0///70 NOSIG RMK QFE731/0975
 TAF UACC 250500Z 2506/2606 22004MPS 9999 SCT040 BKN100 TX27/2510Z TN12/2523Z BECMG 2513/2515 16004MPS BECMG 2602/2604 23006MPS
UACC_aip_1708
показать схемы
Название сценария Тип сценария Flight Simulator 9 Flight Simulator X Prepar3D v2 Prepar3D v3 Prepar3D v4 xPlane
Лёгкий сценарий аэропорта г. Астаны бесплатный


2019 © VATRUS division (Privacy Policy)